Fairfield, PA

5:33 PM EST on December 07, 2016 (GMT -0500)
Fountain Dale

Weather History for KRYT - February, 2012

Change the Weather History Date:

Monday, February 20, 2012

  Actual Average (KHGR) Record (KHGR)
Temperature  
Mean Temperature 39 °F 34 °F  
Max Temperature 48 °F 42 °F 66 °F (2016)
Min Temperature 28 °F 26 °F 1 °F (2015)
Degree Days  
Heating Degree Days 26 31  
Month to date heating degree days 643  
Since 1 July heating degree days 3667  
Cooling Degree Days 0 0  
Month to date cooling degree days 0  
Year to date cooling degree days 0  
Moisture  
Dew Point 18 °F    
Average Humidity 48    
Maximum Humidity 67    
Minimum Humidity 28    
Precipitation  
Precipitation 0.00 in 0.09 in 0.01 in (2001)
Month to date precipitation 1.85  
Year to date precipitation 4.53  
Sea Level Pressure  
Sea Level Pressure 30.21 in    
Wind  
Wind Speed 5 mph (North)    
Max Wind Speed 9 mph    
Max Gust Speed -    
Visibility 10 miles    
Events      
T = Trace of Precipitation, MM = Missing Value Source: NWS Daily Summary

Daily Weather History Graph

Daily Weather History Graph

Search for Another Location

Airport or City:

Trip Planner

Search our weather history database for the weather conditions in past years. The results will help you decide how hot, cold, wet, or windy it might be!

Date:

Astronomy

Feb. 20, 2012 Rise Set
Actual Time 6:56 AM EST 5:51 PM EST
Civil Twilight 6:28 AM EST 6:18 PM EST
Nautical Twilight 5:57 AM EST 6:50 PM EST
Astronomical Twilight 5:26 AM EST 7:21 PM EST
Moon 5:51 AM EST (2/20) 4:53 PM EST (2/20)
Length of Visible Light 11h 49m
Length of Day
10h 54m
Waning Crescent, 2% of the Moon is Illuminated
Feb 20
Waning Crescent
Feb 21
New
Feb 29
First Quarter
Mar 8
Full
Mar 14
Last Quarter

Hourly Weather History & Observations

Time (EST) Temp. Windchill Dew Point Humidity Pressure Visibility Wind Dir Wind Speed Gust Speed Precip Events Conditions
12:53 AM 35.1 °F 28.6 °F 19.0 °F 52% 30.01 in 10.0 mi NE 8.1 mph - N/A   Clear
1:45 AM - - - N/A% - - North - - N/A   Unknown
1:53 AM 35.1 °F 29.3 °F 18.0 °F 50% 30.03 in 10.0 mi NE 6.9 mph - N/A   Clear
2:53 AM 34.0 °F 27.2 °F 18.0 °F 52% 30.04 in 10.0 mi NE 8.1 mph - N/A   Clear
3:53 AM 33.1 °F 30.0 °F 17.1 °F 52% 30.05 in 10.0 mi ENE 3.5 mph - N/A   Clear
4:53 AM 33.1 °F 30.0 °F 17.1 °F 52% 30.09 in 10.0 mi Variable 3.5 mph - N/A   Clear
5:53 AM 32.0 °F 27.5 °F 17.1 °F 54% 30.10 in 10.0 mi Variable 4.6 mph - N/A   Clear
6:53 AM 32.0 °F 28.7 °F 17.1 °F 54% 30.13 in 10.0 mi Variable 3.5 mph - N/A   Clear
7:53 AM 30.9 °F - 17.1 °F 57% 30.17 in 10.0 mi Calm Calm - N/A   Clear
8:53 AM 33.1 °F 28.7 °F 17.1 °F 52% 30.20 in 10.0 mi Variable 4.6 mph - N/A   Clear
9:53 AM 36.0 °F - 17.1 °F 46% 30.24 in 10.0 mi Calm Calm - N/A   Clear
10:53 AM 39.0 °F 34.0 °F 17.1 °F 41% 30.25 in 10.0 mi ENE 6.9 mph - N/A   Clear
11:53 AM 41.0 °F 35.2 °F 19.0 °F 41% 30.27 in 10.0 mi West 9.2 mph - N/A   Clear
12:53 PM 43.0 °F 39.5 °F 19.0 °F 38% 30.25 in 10.0 mi Variable 5.8 mph - N/A   Clear
1:53 PM 45.0 °F 41.2 °F 19.0 °F 36% 30.24 in 10.0 mi West 6.9 mph - N/A   Clear
2:53 PM 48.0 °F - 18.0 °F 30% 30.24 in 10.0 mi Calm Calm - N/A   Clear
3:53 PM 48.9 °F - 17.1 °F 28% 30.24 in 10.0 mi West 5.8 mph - N/A   Clear
4:53 PM 48.0 °F - 17.1 °F 29% 30.25 in 10.0 mi North 5.8 mph - N/A   Clear
5:53 PM 43.0 °F - 19.0 °F 38% 30.28 in 10.0 mi Calm Calm - N/A   Clear
6:53 PM 39.9 °F - 19.0 °F 43% 30.31 in 10.0 mi Calm Calm - N/A   Clear
7:53 PM 35.1 °F - 19.0 °F 52% 30.32 in 10.0 mi Calm Calm - N/A   Clear
8:53 PM 32.0 °F - 19.9 °F 61% 30.34 in 10.0 mi Calm Calm - N/A   Clear
9:53 PM 32.0 °F - 19.0 °F 59% 30.34 in 10.0 mi Calm Calm - N/A   Clear
10:53 PM 30.9 °F 27.5 °F 19.0 °F 61% 30.36 in 10.0 mi WSW 3.5 mph - N/A   Clear
11:53 PM 28.9 °F - 19.0 °F 67% 30.34 in 10.0 mi Calm Calm - N/A   Clear